Location: Newark
(35.9031°N, 139.7175°E)
Time: 04:55:03
(UTC+00:00)

Transit 2A - All Passes

Search period start: 06 June 2020 00:00
Search period end: 16 June 2020 00:00
Orbit: 593 x 966 km, 66.7° (Epoch: 05 June)

Date Brightness Start Highest point End Pass type
(mag) Time Alt. Az. Time Alt. Az. Time Alt. Az.
06 Jun - 01:53:15 10° SSW 01:57:57 59° ESE 02:03:14 10° NE daylight
06 Jun - 03:38:15 10° W 03:41:42 18° NW 03:45:22 10° N daylight
06 Jun - 10:42:06 10° N 10:47:45 34° NE 10:53:28 10° ESE visible
06 Jun - 12:25:12 10° NW 12:31:04 41° WSW 12:36:54 10° S visible
07 Jun - 01:19:32 10° S 01:23:57 37° ESE 01:28:50 10° NE daylight
07 Jun - 03:03:08 10° WSW 03:07:16 25° NW 03:11:46 10° N daylight
07 Jun - 10:08:19 10° N 10:13:24 25° NE 10:18:31 10° ESE daylight
07 Jun - 11:50:49 10° NW 11:57:02 59° WSW 12:03:13 10° S visible
08 Jun - 00:46:09 10° SSE 00:50:01 24° ESE 00:54:12 10° NE daylight
08 Jun - 02:28:22 10° WSW 02:32:54 36° NW 02:37:57 10° NNE daylight
08 Jun - 09:34:43 10° N 09:38:57 18° NE 09:43:13 10° E daylight
08 Jun - 11:16:34 10° NNW 11:22:56 83° WSW 11:29:16 10° SSE visible
08 Jun - 13:03:29 10° W 13:05:16 11° W 13:07:03 10° WSW visible
09 Jun - 00:13:18 10° SE 00:16:08 15° ESE 00:19:07 10° ENE daylight
09 Jun - 01:53:51 10° SW 01:58:38 54° WNW 02:04:00 10° NNE daylight
09 Jun - 09:01:28 10° NNE 09:04:27 13° NE 09:07:26 10° ENE daylight
09 Jun - 10:42:26 10° NNW 10:48:46 71° ENE 10:55:05 10° SE visible
09 Jun - 12:27:23 10° WNW 12:31:24 18° WSW 12:35:23 10° SW visible
10 Jun - 01:19:34 10° SSW 01:24:27 82° WNW 01:29:56 10° NNE daylight
10 Jun - 03:06:40 10° WNW 03:08:42 12° NW 03:10:49 10° NNW daylight
10 Jun - 10:08:24 10° NNW 10:14:33 50° ENE 10:20:41 10° SE daylight
10 Jun - 11:52:23 10° NW 11:57:29 26° WSW 12:02:33 10° SSW visible
11 Jun - 00:45:33 10° SSW 00:50:21 65° ESE 00:55:44 10° NNE daylight
11 Jun - 02:30:51 10° W 02:34:10 17° NW 02:37:44 10° N daylight
11 Jun - 09:34:29 10° N 09:40:16 36° NE 09:46:03 10° ESE daylight
11 Jun - 11:17:44 10° NW 11:23:31 38° WSW 11:29:14 10° S visible
12 Jun - 00:11:46 10° S 00:16:19 42° ESE 00:21:23 10° NE daylight
12 Jun - 01:55:40 10° WSW 01:59:44 24° NW 02:04:10 10° N daylight
12 Jun - 09:00:40 10° N 09:05:55 27° NE 09:11:10 10° ESE daylight
12 Jun - 10:43:18 10° NW 10:49:30 54° WSW 10:55:36 10° S visible
12 Jun - 23:38:18 10° SSE 23:42:22 27° ESE 23:46:48 10° NE daylight
13 Jun - 01:20:49 10° WSW 01:25:22 34° NW 01:30:23 10° N daylight
13 Jun - 08:27:02 10° N 08:31:29 20° NE 08:35:58 10° E daylight
13 Jun - 10:09:02 10° NNW 10:15:24 78° WSW 10:21:42 10° SSE daylight
13 Jun - 11:57:32 10° W 11:57:40 10° W 11:57:47 10° W visible
13 Jun - 23:05:18 10° SE 23:08:29 17° ESE 23:11:53 10° ENE daylight
14 Jun - 00:46:16 10° SW 00:51:04 50° WNW 00:56:28 10° NNE daylight
14 Jun - 07:53:40 10° NNE 07:56:59 14° NE 08:00:19 10° ENE daylight
14 Jun - 09:34:53 10° NNW 09:41:16 76° ENE 09:47:34 10° SSE daylight
14 Jun - 11:20:08 10° WNW 11:23:49 16° WSW 11:27:28 10° SW visible
14 Jun - 22:33:38 10° ESE 22:34:39 11° E 22:35:40 10° E daylight
15 Jun - 00:11:56 10° SSW 00:16:52 75° WNW 00:22:25 10° NNE daylight
15 Jun - 01:59:26 10° WNW 02:01:12 11° NW 02:03:02 10° NNW daylight
15 Jun - 07:21:21 10° NNE 07:22:24 10° NE 07:23:27 10° NE daylight
15 Jun - 09:00:50 10° NNW 09:07:03 54° ENE 09:13:13 10° SE daylight
15 Jun - 10:44:59 10° NW 10:49:55 24° WSW 10:54:46 10° SSW visible
15 Jun - 23:37:51 10° SSW 23:42:44 72° ESE 23:48:14 10° NNE daylight
